Flag for Germany Weather past 2 weeks in Siegburg, North Rhine-Westphalia, Germany

Now
64 °F

Scattered clouds.


Feels Like: 64 °F
Forecast: 52 / 78 °F
Wind: 3 mph from Northeast

Location: Bonn-Hangelar

Current Time: Jul 31, 2015 at 4:22:05 PM

Latest Report: Jul 31, 2015 at 4:00 PM


Visibility: 28 mi

Pressure: 30.07 "Hg

Humidity: 48%

Dew point: 44 °F

Location of SiegburgLocation

Historic Weather in Siegburg — Graph

°F

Siegburg temperature yesterday

Maximum temperature yesterday: 61 °F (at 12:00 PM)
Minimum temperature yesterday: 49 °F (at 5:00 AM)
Average temperature yesterday: 54 °F

Past Weeks' High & Low Weather Summary

 TemperatureHumidityPressure
High89 °F (Jul 17, 5:00 PM)100% (Jul 19, 7:00 AM)30.16 "Hg (Jul 19, 7:00 AM)
Low46 °F (Jul 31, 5:00 AM)31% (Jul 17, 5:00 PM)29.50 "Hg (Jul 25, 7:00 AM)
Average63 °F78%29.89 "Hg
* Reported Jul 16 3:00 PM — Jul 31 3:00 PM, Siegburg, Weather by CustomWeather, © 2015

Note: Actual official high and low records may vary slightly from our data, if they occured in-between our weather recording intervals... More about our weather records

Advertising

Siegburg weather history for previous 24 hours

 ConditionsComfort  
Time TempWeatherWind HumidityBarometerVisibility
3:00 PM
Fri, Jul 31
63 °FScattered clouds.3 mph54%30.09 "Hg25 mi
2:00 PM62 °FPartly sunny.3 mph57%30.11 "Hg19 mi
1:00 PM60 °FPassing clouds.3 mph61%30.14 "Hg19 mi
12:00 PM58 °FPartly sunny.1 mph63%30.15 "Hg19 mi
11:00 AM55 °FHaze.2 mph71%30.16 "Hg25 mi
10:00 AM54 °FHaze.3 mph79%30.16 "Hg19 mi
9:00 AM54 °FSunny.2 mph83%30.16 "Hg11 mi
8:00 AM52 °FSunny.1 mph93%30.16 "Hg7 mi
7:00 AM47 °FSunny.1 mph99%30.15 "Hg6 mi
5:00 AM46 °FClear.1 mph100%30.15 "Hg1 mi
4:00 AM49 °FClear.2 mph100%30.14 "Hg0 mi
3:00 AM50 °FClear.2 mph100%30.14 "Hg1 mi
2:00 AM49 °FFog.2 mph100%30.14 "Hg1 mi
1:00 AM51 °FFog.2 mph98%30.14 "Hg4 mi
11:00 PM
Thu, Jul 30
52 °FOvercast.3 mph97%30.12 "Hg9 mi
10:00 PM52 °FOvercast.2 mph97%30.11 "Hg9 mi
9:00 PM52 °FDrizzle. Overcast.2 mph98%30.09 "Hg8 mi
8:00 PM51 °FLight rain. Low clouds.5 mph97%30.08 "Hg3 mi
7:00 PM56 °FDrizzle. Overcast.3 mph90%30.05 "Hg10 mi
6:00 PM58 °FOvercast.3 mph89%30.04 "Hg13 mi
5:00 PM56 °FOvercast.3 mph93%30.04 "Hg9 mi
4:00 PM54 °FRain. Low clouds.3 mph97%30.04 "Hg3 mi
Weather by CustomWeather, © 2015

See weather overviewHow to use our weather pages